EZY63DK EGKK-EDDH

Flight info

Callsign EZY63DK
Flight time 1h 13m
Altitude 39000
Route FRANE M604 PAAVO Q295 SOMVA DCT MAVAS DCT PARYD DCT GASTU DCT OSTOR T904 RIBSO RIBSO7A
Aircraft A20N/M-SDE2E3FGHIRWXY/LB1

Departure

Time 2026-05-06 14:58
Airport London Gatwick Airport (EGKK)

Arrival

Time 2026-05-06 16:11
Airport Hamburg Helmut Schmidt Airport (EDDH)
Time Latitude Longitude Altitude Speed Heading
2026-05-06 14:19 51.15971 -0.17149 217 ft 0 kts 323°
2026-05-06 14:38 51.15971 -0.17148 208 ft 1 kts 323°
2026-05-06 14:39 51.15965 -0.17142 208 ft 1 kts 323°
2026-05-06 14:39 51.15960 -0.17135 220 ft 1 kts 323°
2026-05-06 14:39 51.15949 -0.17123 220 ft 3 kts 323°
2026-05-06 14:39 51.15934 -0.17105 216 ft 3 kts 323°
2026-05-06 14:40 51.15922 -0.17082 216 ft 3 kts 297°
2026-05-06 14:40 51.15916 -0.17054 214 ft 3 kts 273°
2026-05-06 14:40 51.15923 -0.17033 211 ft 0 kts 216°
2026-05-06 14:45 51.15918 -0.17039 216 ft 2 kts 216°
2026-05-06 14:45 51.15904 -0.17053 211 ft 3 kts 211°
2026-05-06 14:45 51.15886 -0.17068 210 ft 3 kts 204°
2026-05-06 14:45 51.15864 -0.17080 208 ft 5 kts 195°
2026-05-06 14:46 51.15821 -0.17118 216 ft 10 kts 236°
2026-05-06 14:46 51.15798 -0.17252 211 ft 14 kts 257°
2026-05-06 14:46 51.15777 -0.17398 218 ft 14 kts 257°
2026-05-06 14:46 51.15757 -0.17546 212 ft 14 kts 257°
2026-05-06 14:47 51.15737 -0.17694 212 ft 14 kts 257°
2026-05-06 14:47 51.15717 -0.17841 213 ft 14 kts 259°
2026-05-06 14:47 51.15697 -0.17988 211 ft 14 kts 258°
2026-05-06 14:47 51.15677 -0.18136 220 ft 14 kts 257°
2026-05-06 14:48 51.15655 -0.18282 214 ft 13 kts 258°
2026-05-06 14:48 51.15635 -0.18429 208 ft 14 kts 258°
2026-05-06 14:48 51.15615 -0.18575 215 ft 14 kts 257°
2026-05-06 14:48 51.15595 -0.18723 211 ft 14 kts 258°
2026-05-06 14:49 51.15569 -0.18826 212 ft 5 kts 194°
2026-05-06 14:49 51.15526 -0.18824 218 ft 10 kts 168°
2026-05-06 14:49 51.15452 -0.18799 216 ft 11 kts 167°
2026-05-06 14:49 51.15358 -0.18765 208 ft 16 kts 168°
2026-05-06 14:50 51.15249 -0.18727 213 ft 16 kts 167°
2026-05-06 14:50 51.15141 -0.18714 215 ft 16 kts 203°
2026-05-06 14:50 51.15106 -0.18861 208 ft 15 kts 272°
2026-05-06 14:50 51.15092 -0.19019 211 ft 14 kts 257°
2026-05-06 14:51 51.15071 -0.19174 213 ft 14 kts 257°
2026-05-06 14:51 51.15050 -0.19328 212 ft 14 kts 259°
2026-05-06 14:51 51.15029 -0.19482 209 ft 14 kts 257°
2026-05-06 14:51 51.15008 -0.19637 211 ft 14 kts 257°
2026-05-06 14:52 51.14986 -0.19791 211 ft 14 kts 258°
2026-05-06 14:52 51.14965 -0.19949 212 ft 15 kts 258°
2026-05-06 14:52 51.14943 -0.20109 210 ft 15 kts 258°
2026-05-06 14:52 51.14918 -0.20273 208 ft 15 kts 255°
2026-05-06 14:53 51.14896 -0.20436 217 ft 15 kts 261°
2026-05-06 14:53 51.14874 -0.20601 215 ft 15 kts 258°
2026-05-06 14:53 51.14852 -0.20766 210 ft 15 kts 257°
2026-05-06 14:53 51.14829 -0.20930 214 ft 15 kts 258°
2026-05-06 14:54 51.14805 -0.21093 210 ft 15 kts 255°
2026-05-06 14:54 51.14777 -0.21250 208 ft 14 kts 260°
2026-05-06 14:54 51.14751 -0.21384 215 ft 7 kts 236°
2026-05-06 14:54 51.14737 -0.21404 215 ft 0 kts 207°
2026-05-06 14:56 51.14726 -0.21407 213 ft 6 kts 184°
2026-05-06 14:56 51.14659 -0.21361 220 ft 12 kts 143°
2026-05-06 14:56 51.14583 -0.21317 217 ft 11 kts 163°
2026-05-06 14:57 51.14525 -0.21240 212 ft 11 kts 115°
2026-05-06 14:57 51.14526 -0.21122 219 ft 10 kts 76°
2026-05-06 14:57 51.14549 -0.20957 212 ft 36 kts 79°
2026-05-06 14:57 51.14657 -0.20182 215 ft 105 kts 77°
2026-05-06 14:58 51.14852 -0.18741 315 ft 149 kts 78°
2026-05-06 14:58 51.15070 -0.17110 931 ft 149 kts 74°
2026-05-06 14:58 51.15319 -0.15515 1693 ft 148 kts 71°
2026-05-06 14:58 51.15623 -0.13919 2318 ft 164 kts 68°
2026-05-06 14:59 51.15930 -0.12014 2866 ft 188 kts 74°
2026-05-06 14:59 51.16189 -0.09838 3297 ft 217 kts 77°
2026-05-06 14:59 51.16473 -0.07437 4030 ft 231 kts 76°
2026-05-06 14:59 51.16786 -0.04837 4686 ft 247 kts 78°
2026-05-06 15:00 51.16887 -0.02069 5226 ft 253 kts 88°
2026-05-06 15:00 51.16847 0.00761 5882 ft 257 kts 90°
2026-05-06 15:00 51.16909 0.03502 6492 ft 256 kts 75°
2026-05-06 15:00 51.17686 0.05970 7081 ft 252 kts 47°
2026-05-06 15:01 51.19028 0.07766 7693 ft 254 kts 33°
2026-05-06 15:01 51.20512 0.09333 8317 ft 257 kts 30°
2026-05-06 15:01 51.22019 0.10897 8941 ft 260 kts 31°
2026-05-06 15:01 51.23547 0.12480 9575 ft 264 kts 31°
2026-05-06 15:02 51.25100 0.14088 10195 ft 268 kts 30°
2026-05-06 15:02 51.26665 0.15726 10788 ft 271 kts 31°
2026-05-06 15:02 51.28251 0.17383 11392 ft 274 kts 31°
2026-05-06 15:02 51.29860 0.19062 12000 ft 278 kts 30°
2026-05-06 15:03 51.31484 0.20776 12616 ft 282 kts 30°
2026-05-06 15:03 51.33137 0.22511 12940 ft 285 kts 31°
2026-05-06 15:03 51.34803 0.24266 12992 ft 288 kts 31°
2026-05-06 15:03 51.36471 0.26047 12991 ft 289 kts 31°
2026-05-06 15:04 51.38128 0.27798 13008 ft 290 kts 31°
2026-05-06 15:04 51.39822 0.29600 13507 ft 294 kts 31°
2026-05-06 15:04 51.41535 0.31426 14402 ft 296 kts 31°
2026-05-06 15:04 51.43262 0.33253 15251 ft 299 kts 31°
2026-05-06 15:05 51.45010 0.35114 16049 ft 304 kts 31°
2026-05-06 15:05 51.46783 0.36990 16845 ft 308 kts 31°
2026-05-06 15:05 51.48586 0.38892 17627 ft 312 kts 31°
2026-05-06 15:05 51.50413 0.40825 18400 ft 317 kts 31°
2026-05-06 15:06 51.52304 0.42808 18825 ft 333 kts 31°
2026-05-06 15:06 51.54305 0.44904 19121 ft 352 kts 31°
2026-05-06 15:06 51.56411 0.47099 19445 ft 368 kts 31°
2026-05-06 15:06 51.58598 0.49371 19926 ft 380 kts 31°
2026-05-06 15:07 51.60837 0.51697 20553 ft 385 kts 31°
2026-05-06 15:07 51.63104 0.54043 21246 ft 389 kts 31°
2026-05-06 15:07 51.65367 0.56391 21903 ft 394 kts 31°
2026-05-06 15:07 51.67684 0.58790 22580 ft 397 kts 31°
2026-05-06 15:08 51.70023 0.61216 23210 ft 402 kts 31°
2026-05-06 15:08 51.72402 0.63676 23643 ft 411 kts 31°
2026-05-06 15:08 51.74843 0.66202 23879 ft 423 kts 31°
2026-05-06 15:08 51.77349 0.68792 24110 ft 434 kts 31°
2026-05-06 15:09 51.79926 0.71455 24336 ft 445 kts 31°
2026-05-06 15:09 51.82564 0.74182 24552 ft 455 kts 31°
2026-05-06 15:09 51.85257 0.76979 24834 ft 464 kts 31°
2026-05-06 15:09 51.87973 0.79797 25389 ft 464 kts 31°
2026-05-06 15:10 51.90695 0.82629 26010 ft 463 kts 31°
2026-05-06 15:10 51.93398 0.85436 26678 ft 461 kts 31°
2026-05-06 15:10 51.95999 0.88469 27292 ft 461 kts 40°
2026-05-06 15:10 51.98215 0.92223 27932 ft 461 kts 51°
2026-05-06 15:11 51.99916 0.96626 28537 ft 461 kts 64°
2026-05-06 15:11 52.01159 1.01412 29202 ft 458 kts 70°
2026-05-06 15:11 52.02190 1.06299 29839 ft 456 kts 72°
2026-05-06 15:11 52.03109 1.11223 30340 ft 455 kts 74°
2026-05-06 15:12 52.03985 1.16162 30797 ft 455 kts 74°
2026-05-06 15:12 52.04561 1.19432 31087 ft 455 kts 74°
2026-05-06 15:12 52.05728 1.25978 31634 ft 455 kts 73°
2026-05-06 15:12 52.06623 1.30903 32070 ft 454 kts 73°
2026-05-06 15:13 52.07530 1.35823 32503 ft 453 kts 73°
2026-05-06 15:13 52.08133 1.39077 32780 ft 453 kts 73°
2026-05-06 15:13 52.09043 1.43970 33194 ft 452 kts 73°
2026-05-06 15:13 52.09954 1.48863 33601 ft 451 kts 73°
2026-05-06 15:14 52.10859 1.53740 34033 ft 449 kts 73°
2026-05-06 15:14 52.11759 1.58599 34374 ft 448 kts 73°
2026-05-06 15:14 52.12657 1.63467 34639 ft 449 kts 73°
2026-05-06 15:14 52.13553 1.68344 34903 ft 450 kts 73°
2026-05-06 15:15 52.14445 1.73212 35160 ft 450 kts 73°
2026-05-06 15:15 52.15342 1.78126 35426 ft 451 kts 73°
2026-05-06 15:15 52.16216 1.82924 35682 ft 451 kts 73°
2026-05-06 15:15 52.17096 1.87765 35929 ft 452 kts 73°
2026-05-06 15:16 52.17985 1.92674 36177 ft 452 kts 73°
2026-05-06 15:16 52.18875 1.97599 36415 ft 453 kts 74°
2026-05-06 15:16 52.19762 2.02520 36629 ft 454 kts 74°
2026-05-06 15:16 52.20651 2.07465 36827 ft 455 kts 74°
2026-05-06 15:17 52.21539 2.12416 37088 ft 455 kts 74°
2026-05-06 15:17 52.22423 2.17360 37308 ft 455 kts 74°
2026-05-06 15:17 52.23307 2.22317 37530 ft 456 kts 74°
2026-05-06 15:17 52.24197 2.27322 37633 ft 459 kts 74°
2026-05-06 15:18 52.25088 2.32346 37792 ft 461 kts 74°
2026-05-06 15:18 52.25978 2.37376 37964 ft 462 kts 74°
2026-05-06 15:18 52.26867 2.42418 38173 ft 463 kts 75°
2026-05-06 15:18 52.27755 2.47468 38364 ft 463 kts 75°
2026-05-06 15:19 52.28642 2.52530 38513 ft 465 kts 75°
2026-05-06 15:19 52.29530 2.57610 38668 ft 466 kts 75°
2026-05-06 15:19 52.30420 2.62710 38829 ft 466 kts 75°
2026-05-06 15:19 52.31311 2.67803 38935 ft 467 kts 75°
2026-05-06 15:20 52.32211 2.72906 38952 ft 467 kts 75°
2026-05-06 15:20 52.34001 2.83054 38949 ft 466 kts 75°
2026-05-06 15:21 52.35789 2.93240 38952 ft 466 kts 75°
2026-05-06 15:21 52.37567 3.03448 38945 ft 466 kts 75°
2026-05-06 15:22 52.39336 3.13665 38945 ft 466 kts 75°
2026-05-06 15:22 52.41100 3.23896 38942 ft 466 kts 75°
2026-05-06 15:23 52.42859 3.34137 38939 ft 466 kts 75°
2026-05-06 15:23 52.44597 3.44311 38937 ft 466 kts 75°
2026-05-06 15:24 52.46338 3.54563 38933 ft 467 kts 75°
2026-05-06 15:24 52.48076 3.64853 38930 ft 468 kts 76°
2026-05-06 15:25 52.49806 3.75159 38931 ft 469 kts 76°
2026-05-06 15:25 52.51529 3.85486 38928 ft 469 kts 76°
2026-05-06 15:26 52.53243 3.95823 38928 ft 469 kts 76°
2026-05-06 15:26 52.54934 4.06091 38920 ft 468 kts 76°
2026-05-06 15:27 52.56625 4.16415 38922 ft 467 kts 76°
2026-05-06 15:27 52.58305 4.26733 38917 ft 467 kts 76°
2026-05-06 15:28 52.59977 4.37066 38922 ft 467 kts 76°
2026-05-06 15:28 52.61639 4.47402 38916 ft 467 kts 76°
2026-05-06 15:29 52.63292 4.57743 38918 ft 467 kts 76°
2026-05-06 15:29 52.64935 4.68086 38914 ft 467 kts 76°
2026-05-06 15:30 52.66570 4.78446 38916 ft 467 kts 77°
2026-05-06 15:30 52.68187 4.88752 38923 ft 468 kts 77°
2026-05-06 15:31 52.69809 4.99160 38921 ft 469 kts 77°
2026-05-06 15:31 52.71396 5.09409 38907 ft 469 kts 77°
2026-05-06 15:32 52.73805 5.25082 38905 ft 469 kts 77°
2026-05-06 15:32 52.75387 5.35461 38906 ft 469 kts 77°
2026-05-06 15:33 52.76969 5.45912 38901 ft 469 kts 77°
2026-05-06 15:33 52.78542 5.56368 38897 ft 469 kts 77°
2026-05-06 15:34 52.80107 5.66837 38897 ft 469 kts 77°
2026-05-06 15:34 52.81660 5.77294 38897 ft 468 kts 78°
2026-05-06 15:35 52.83204 5.87765 38900 ft 468 kts 78°
2026-05-06 15:35 52.84740 5.98244 38900 ft 468 kts 78°
2026-05-06 15:36 52.86264 6.08718 38893 ft 469 kts 78°
2026-05-06 15:36 52.87782 6.19222 38898 ft 469 kts 78°
2026-05-06 15:37 52.89281 6.29663 38906 ft 469 kts 78°
2026-05-06 15:37 52.90783 6.40198 38906 ft 469 kts 78°
2026-05-06 15:38 52.92275 6.50732 38900 ft 469 kts 78°
2026-05-06 15:38 52.93756 6.61267 38902 ft 469 kts 78°
2026-05-06 15:39 52.95232 6.71837 38905 ft 471 kts 78°
2026-05-06 15:39 52.96699 6.82418 38907 ft 471 kts 78°
2026-05-06 15:40 52.98160 6.93027 38903 ft 471 kts 79°
2026-05-06 15:40 52.99600 7.03560 38900 ft 471 kts 79°
2026-05-06 15:41 53.01045 7.14209 38882 ft 471 kts 79°
2026-05-06 15:41 53.02475 7.24795 38888 ft 472 kts 78°
2026-05-06 15:42 53.04973 7.34862 38893 ft 474 kts 57°
2026-05-06 15:42 53.06994 7.39178 38893 ft 473 kts 45°
2026-05-06 15:42 53.09476 7.42745 38897 ft 472 kts 35°
2026-05-06 15:43 53.14921 7.48877 38900 ft 473 kts 31°
2026-05-06 15:43 53.20512 7.54686 38895 ft 473 kts 31°
2026-05-06 15:44 53.26062 7.60469 38895 ft 473 kts 31°
2026-05-06 15:44 53.31625 7.66360 38898 ft 473 kts 31°
2026-05-06 15:45 53.37173 7.72293 38900 ft 473 kts 32°
2026-05-06 15:45 53.42724 7.78258 38899 ft 474 kts 31°
2026-05-06 15:46 53.48295 7.84258 38537 ft 478 kts 32°
2026-05-06 15:46 53.51093 7.87279 38000 ft 476 kts 32°
2026-05-06 15:46 53.53864 7.90274 37573 ft 471 kts 32°
2026-05-06 15:47 53.56612 7.93250 37087 ft 468 kts 32°
2026-05-06 15:47 53.59306 7.96177 36575 ft 466 kts 33°
2026-05-06 15:47 53.61785 7.99674 36031 ft 464 kts 48°
2026-05-06 15:47 53.63651 8.04058 35664 ft 457 kts 64°
2026-05-06 15:48 53.64908 8.08911 35453 ft 447 kts 70°
2026-05-06 15:48 53.65974 8.13760 35217 ft 438 kts 72°
2026-05-06 15:48 53.66935 8.18636 34667 ft 438 kts 73°
2026-05-06 15:48 53.67848 8.23563 33961 ft 443 kts 74°
2026-05-06 15:49 53.68755 8.28558 33146 ft 447 kts 74°
2026-05-06 15:49 53.69670 8.33586 32338 ft 450 kts 74°
2026-05-06 15:49 53.70601 8.38652 31547 ft 452 kts 74°
2026-05-06 15:49 53.71543 8.43730 30772 ft 455 kts 74°
2026-05-06 15:50 53.72498 8.48846 29884 ft 459 kts 74°
2026-05-06 15:50 53.73462 8.54006 28888 ft 463 kts 74°
2026-05-06 15:50 53.74435 8.59208 27925 ft 465 kts 74°
2026-05-06 15:50 53.75411 8.64434 26992 ft 468 kts 73°
2026-05-06 15:51 53.76377 8.69618 26100 ft 469 kts 74°
2026-05-06 15:51 53.77351 8.74865 25227 ft 465 kts 73°
2026-05-06 15:51 53.78307 8.80033 24397 ft 455 kts 73°
2026-05-06 15:51 53.79244 8.85108 23589 ft 447 kts 73°
2026-05-06 15:52 53.80157 8.90070 22676 ft 438 kts 73°
2026-05-06 15:52 53.81027 8.94806 21801 ft 430 kts 74°
2026-05-06 15:52 53.81912 8.99643 20895 ft 423 kts 74°
2026-05-06 15:52 53.82558 9.04430 20031 ft 412 kts 86°
2026-05-06 15:53 53.82578 9.09228 19198 ft 403 kts 94°
2026-05-06 15:53 53.82392 9.13921 18410 ft 395 kts 96°
2026-05-06 15:53 53.82160 9.18444 17630 ft 386 kts 96°
2026-05-06 15:53 53.81912 9.22918 16836 ft 377 kts 97°
2026-05-06 15:54 53.81662 9.27290 16058 ft 369 kts 98°
2026-05-06 15:54 53.81375 9.31561 15298 ft 361 kts 102°
2026-05-06 15:54 53.80590 9.35521 14554 ft 351 kts 118°
2026-05-06 15:54 53.79342 9.39017 13828 ft 344 kts 124°
2026-05-06 15:55 53.78000 9.42329 13040 ft 338 kts 128°
2026-05-06 15:55 53.76304 9.45009 12246 ft 333 kts 149°
2026-05-06 15:55 53.74130 9.46204 11473 ft 330 kts 175°
2026-05-06 15:55 53.71884 9.45611 10731 ft 329 kts 201°
2026-05-06 15:56 53.69841 9.43933 10073 ft 323 kts 202°
2026-05-06 15:56 53.67683 9.43292 9429 ft 312 kts 173°
2026-05-06 15:56 53.65625 9.44060 8782 ft 304 kts 161°
2026-05-06 15:56 53.63621 9.45098 8135 ft 298 kts 161°
2026-05-06 15:57 53.61644 9.46075 7501 ft 294 kts 162°
2026-05-06 15:57 53.59677 9.46975 6876 ft 290 kts 163°
2026-05-06 15:57 53.57731 9.47813 6259 ft 287 kts 163°
2026-05-06 15:57 53.55814 9.48609 5777 ft 280 kts 164°
2026-05-06 15:58 53.53946 9.49365 5384 ft 272 kts 163°
2026-05-06 15:58 53.52132 9.50050 4991 ft 264 kts 168°
2026-05-06 15:58 53.50325 9.49939 4591 ft 260 kts 195°
2026-05-06 15:58 53.48790 9.48418 4198 ft 257 kts 222°
2026-05-06 15:59 53.47601 9.46251 3989 ft 247 kts 229°
2026-05-06 15:59 53.46506 9.44037 3989 ft 247 kts 229°
2026-05-06 15:59 53.45406 9.41803 3998 ft 248 kts 230°
2026-05-06 15:59 53.44308 9.39591 4011 ft 246 kts 229°
2026-05-06 16:00 53.43565 9.38150 3991 ft 247 kts 225°
2026-05-06 16:00 53.42179 9.36494 3988 ft 245 kts 199°
2026-05-06 16:00 53.40531 9.36184 3991 ft 237 kts 166°
2026-05-06 16:00 53.39056 9.37258 3998 ft 230 kts 141°
2026-05-06 16:01 53.37805 9.38915 3994 ft 228 kts 134°
2026-05-06 16:01 53.36804 9.40927 3984 ft 223 kts 115°
2026-05-06 16:01 53.36397 9.43382 3980 ft 218 kts 90°
2026-05-06 16:01 53.36776 9.45793 3982 ft 217 kts 60°
2026-05-06 16:02 53.37656 9.47848 3992 ft 217 kts 52°
2026-05-06 16:02 53.38618 9.49787 3985 ft 217 kts 51°
2026-05-06 16:02 53.39598 9.51705 3977 ft 217 kts 50°
2026-05-06 16:02 53.40581 9.53616 3984 ft 216 kts 51°
2026-05-06 16:03 53.41553 9.55550 3984 ft 217 kts 51°
2026-05-06 16:03 53.42489 9.57433 3972 ft 202 kts 51°
2026-05-06 16:03 53.43369 9.59209 3957 ft 196 kts 51°
2026-05-06 16:03 53.44233 9.60948 3965 ft 196 kts 51°
2026-05-06 16:04 53.45110 9.62706 3965 ft 197 kts 51°
2026-05-06 16:04 53.45989 9.64470 3966 ft 197 kts 51°
2026-05-06 16:04 53.46864 9.66226 3960 ft 193 kts 51°
2026-05-06 16:04 53.47685 9.67874 3954 ft 177 kts 51°
2026-05-06 16:05 53.48470 9.69452 3929 ft 175 kts 51°
2026-05-06 16:05 53.49247 9.71015 3932 ft 174 kts 51°
2026-05-06 16:05 53.50008 9.72545 3865 ft 164 kts 51°
2026-05-06 16:05 53.50724 9.73985 3657 ft 158 kts 51°
2026-05-06 16:06 53.51420 9.75385 3408 ft 154 kts 51°
2026-05-06 16:06 53.52099 9.76753 3178 ft 150 kts 51°
2026-05-06 16:06 53.52753 9.78070 2964 ft 144 kts 51°
2026-05-06 16:06 53.53387 9.79347 2782 ft 141 kts 51°
2026-05-06 16:07 53.54010 9.80602 2584 ft 138 kts 51°
2026-05-06 16:07 53.54606 9.81802 2423 ft 127 kts 51°
2026-05-06 16:07 53.55150 9.82900 2230 ft 120 kts 51°
2026-05-06 16:07 53.55671 9.83952 2081 ft 121 kts 50°
2026-05-06 16:08 53.56202 9.85022 1910 ft 120 kts 51°
2026-05-06 16:08 53.56735 9.86098 1752 ft 119 kts 51°
2026-05-06 16:08 53.57261 9.87159 1582 ft 118 kts 50°
2026-05-06 16:08 53.57791 9.88229 1418 ft 120 kts 49°
2026-05-06 16:09 53.58332 9.89320 1245 ft 122 kts 51°
2026-05-06 16:09 53.58884 9.90436 1059 ft 125 kts 51°
2026-05-06 16:09 53.59434 9.91580 909 ft 126 kts 51°
2026-05-06 16:09 53.59992 9.92723 677 ft 126 kts 47°
2026-05-06 16:10 53.60563 9.93844 528 ft 128 kts 48°
2026-05-06 16:10 53.61146 9.94990 314 ft 133 kts 51°
2026-05-06 16:10 53.61730 9.96176 134 ft 130 kts 51°
2026-05-06 16:10 53.62294 9.97327 54 ft 118 kts 49°
2026-05-06 16:11 53.62732 9.98201 48 ft 56 kts 50°
2026-05-06 16:11 53.62891 9.98518 47 ft 34 kts 51°
2026-05-06 16:11 53.63036 9.98824 46 ft 32 kts 50°
2026-05-06 16:11 53.63182 9.99115 49 ft 34 kts 50°
2026-05-06 16:12 53.63298 9.99353 50 ft 7 kts 62°
2026-05-06 16:12 53.63295 9.99469 48 ft 15 kts 98°
2026-05-06 16:12 53.63278 9.99649 48 ft 14 kts 98°
2026-05-06 16:12 53.63274 9.99701 48 ft 0 kts 99°
2026-05-06 16:15 53.63270 9.99720 46 ft 4 kts 115°
2026-05-06 16:15 53.63228 9.99761 48 ft 10 kts 157°
2026-05-06 16:16 53.63145 9.99829 48 ft 16 kts 153°
2026-05-06 16:16 53.63070 9.99893 48 ft 6 kts 153°
2026-05-06 16:16 53.63038 9.99920 48 ft 5 kts 152°
2026-05-06 16:16 53.63005 9.99950 48 ft 3 kts 153°
2026-05-06 16:17 53.62990 9.99963 47 ft 0 kts 153°
2026-05-06 16:17 53.62970 9.99982 49 ft 7 kts 148°
2026-05-06 16:17 53.62946 10.00056 49 ft 7 kts 81°
2026-05-06 16:17 53.62953 10.00085 49 ft 2 kts 68°
2026-05-06 16:18 53.62955 10.00152 49 ft 9 kts 100°
2026-05-06 16:18 53.62932 10.00248 48 ft 6 kts 112°
2026-05-06 16:18 53.62923 10.00298 45 ft 0 kts 103°